Theta_e
344 345 347 348 348 350 349 349 342 345 343 344 349 349 350 350 351 352 347 346 347 346 346 353 350 349 347 335 343 343 341 343 343 346 349 349 349 347 347 346 348 349 349
345 345 346 348 349 350 351 351 347 340 344 347 349 351 352 351 351 352 349 345 346 346 347 348 350 343 344 340 328 325 339 340 341 342 347 346 344 345 347 348 347 346 344
346 345 346 347 348 349 351 350 344 345 343 347 349 346 349 348 351 351 349 346 346 346 347 346 350 337 338 340 332 333 328 337 338 334 346 346 345 344 344 344 342 340 340
346 345 344 344 345 347 349 351 346 343 344 344 350 348 351 351 351 352 350 353 347 347 347 346 343 335 341 330 337 336 336 334 335 337 339 341 343 343 344 342 340 339 339
346 346 346 344 343 345 347 349 347 344 343 344 347 349 349 351 352 352 352 348 348 348 346 344 337 334 341 329 334 338 336 338 335 333 336 339 338 339 337 338 340 339 337
346 346 347 347 346 345 347 349 345 343 342 343 344 345 351 352 352 352 345 345 347 351 345 344 338 333 334 332 339 334 333 330 328 332 333 336 337 338 335 335 338 339 340
346 346 347 347 348 348 348 348 344 343 343 343 344 344 345 346 349 345 347 344 347 348 346 344 337 333 330 331 335 333 330 325 328 320 331 332 333 335 334 332 333 336 337
347 346 347 348 348 349 349 348 342 342 342 343 343 344 344 347 351 351 344 345 345 351 348 344 335 334 330 334 335 337 335 319 319 317 318 329 331 331 330 332 331 332 334
349 347 347 348 348 349 350 350 342 341 341 342 343 344 344 345 349 346 345 350 350 350 346 344 337 334 332 336 334 336 320 315 314 312 313 326 326 326 326 328 328 329 329
349 349 349 348 348 348 350 349 347 342 341 342 342 343 344 344 345 343 344 348 350 348 347 344 341 340 335 337 336 329 315 313 318 323 312 319 322 321 322 323 325 325 326
344 344 345 347 347 349 349 350 349 350 347 341 342 343 344 344 344 343 344 346 347 349 346 345 342 341 337 339 337 325 314 311 311 311 310 309 309 318 320 321 323 324 325
342 344 344 346 346 347 349 350 350 351 351 346 343 342 345 345 344 344 344 345 348 348 344 343 342 341 339 340 335 318 312 311 310 309 308 308 309 309 312 316 312 314 319
343 343 344 345 346 348 350 351 349 345 349 349 346 342 342 345 345 345 344 345 348 348 345 342 341 341 341 339 332 314 311 311 309 308 308 308 309 311 310 316 319 318 318
345 345 345 346 347 349 341 344 347 343 342 345 344 346 342 343 344 346 345 346 347 347 343 341 340 341 340 339 322 311 312 310 309 308 308 308 309 309 311 314 313 315 320
357 357 355 352 349 350 342 341 342 344 343 343 342 351 347 343 342 343 346 348 347 344 342 339 342 341 340 336 327 326 311 310 308 308 309 309 310 311 315 321 317 321 321
352 356 360 362 356 349 349 342 343 345 345 346 346 345 348 347 346 341 344 348 348 339 339 338 339 339 340 334 335 333 312 309 308 311 313 309 311 314 315 315 315 315 321
343 343 349 353 359 348 341 343 342 342 343 343 336 337 342 347 348 347 345 348 347 338 337 337 339 338 338 336 333 318 312 310 316 310 310 316 313 315 316 316 316 317 317
345 345 342 345 353 356 350 344 340 341 340 343 340 340 340 345 346 347 351 349 343 339 337 339 341 336 337 336 332 313 313 320 311 311 313 317 313 315 317 322 323 324 323
342 344 344 344 353 347 352 351 353 342 342 342 343 345 347 349 341 352 351 347 340 339 342 341 340 336 336 335 325 313 316 315 311 314 316 315 314 316 318 322 324 324 323
343 345 346 348 347 357 356 354 360 359 358 349 348 352 348 349 350 350 351 346 343 342 343 342 338 336 336 335 321 312 316 314 319 317 316 313 321 317 318 318 323 323 323
340 343 347 353 354 359 356 360 361 361 362 361 362 361 359 356 351 350 348 343 343 345 344 342 338 336 335 334 318 312 316 317 320 321 322 321 315 313 317 318 317 321 318
339 343 346 351 354 359 358 361 361 362 362 359 360 362 359 356 352 349 348 344 337 338 339 341 337 335 335 332 318 311 314 318 321 321 322 322 315 312 312 315 318 318 318
340 343 348 347 349 353 354 356 359 362 358 360 357 353 355 356 353 349 346 339 331 336 338 332 335 335 335 333 317 311 310 314 321 323 322 321 312 313 315 317 318 317 320
337 340 344 346 348 351 350 351 355 341 354 357 353 354 353 351 351 349 345 337 333 333 333 337 337 335 333 330 317 311 310 314 316 320 315 313 313 316 318 317 317 319 322
338 340 343 347 350 349 345 348 343 344 356 355 356 356 354 351 349 348 343 339 333 332 333 337 339 335 333 330 327 311 311 314 319 316 318 313 316 318 319 321 322 322 322
338 336 336 343 349 348 340 340 342 343 345 353 351 351 352 349 348 346 342 338 335 334 334 333 338 337 333 334 329 311 312 315 315 315 318 317 317 317 318 320 322 322 323
Wind_Speed
25 26 24 22 20 18 17 17 20 19 18 18 13 12 10 8 8 7 9 6 4 4 4 1 2 2 1 2 3 3 4 2 4 2 4 6 6 5 5 4 4 4 4
23 26 26 24 22 21 20 20 20 21 21 17 15 12 10 9 8 9 10 7 7 5 3 4 3 2 1 3 4 3 1 2 2 1 1 3 4 5 4 4 3 5 4
24 25 27 26 23 22 22 22 24 23 22 20 17 17 14 14 10 9 9 8 6 5 4 4 5 1 3 1 3 3 2 1 2 0 2 2 2 5 1 3 3 5 4
25 24 25 25 25 23 21 21 21 26 25 25 20 19 14 10 8 7 7 8 6 5 4 4 3 2 2 2 3 4 5 5 1 2 1 2 5 4 4 1 2 5 6
28 28 25 24 24 22 20 19 21 23 25 24 23 21 18 13 9 8 10 9 6 5 4 5 4 2 3 2 2 4 4 3 2 1 1 2 2 2 3 2 3 2 3
27 28 26 22 22 21 20 19 20 20 23 23 22 24 19 16 10 8 8 9 7 5 5 5 5 3 3 2 2 3 4 3 2 2 3 2 2 2 4 4 3 3 2
23 27 27 26 23 23 22 21 23 23 22 22 22 22 22 21 16 12 8 9 8 7 7 8 6 5 5 3 1 2 4 4 2 2 2 2 2 1 1 2 2 3 2
17 22 25 25 24 23 23 22 21 22 24 24 24 23 22 22 18 14 12 11 11 9 11 10 8 9 6 4 1 2 2 4 3 2 2 1 2 1 1 2 2 3 3
11 14 19 23 25 25 24 23 22 23 26 26 24 23 21 22 19 18 17 13 12 13 13 13 11 10 8 5 2 1 3 3 2 2 2 3 1 1 1 1 1 2 2
7 9 12 17 21 23 24 25 25 26 25 27 26 25 23 22 22 20 18 16 15 15 15 14 14 11 10 7 4 1 1 1 2 2 3 5 3 3 3 3 3 2 0
5 7 8 11 15 18 21 24 25 23 25 28 26 25 26 23 22 22 21 22 17 18 16 16 17 15 11 9 5 2 1 1 3 4 5 5 5 5 5 5 4 4 4
3 5 6 8 12 17 20 22 23 23 24 28 29 29 23 26 24 24 22 21 17 17 16 18 18 16 14 11 6 3 2 3 5 6 6 6 6 7 7 6 6 5 7
4 3 4 7 9 14 19 23 24 26 24 25 29 31 31 27 26 24 23 21 17 16 16 18 19 20 16 15 9 5 5 6 7 6 6 6 6 6 6 7 7 6 6
6 4 2 6 10 14 18 22 24 26 28 28 28 30 31 31 27 27 26 22 15 16 15 18 18 18 16 16 10 9 9 9 8 7 6 6 6 7 7 7 7 8 7
10 8 5 1 6 12 16 19 21 23 24 24 25 23 27 30 29 28 26 24 18 15 15 18 17 17 15 18 13 7 9 9 8 9 7 6 6 6 8 7 9 11 7
11 11 10 8 2 11 13 18 21 24 24 22 19 21 28 29 31 31 27 25 22 16 20 17 17 14 17 19 15 11 10 12 12 10 9 7 7 8 9 9 11 10 8
6 7 8 10 8 2 11 14 19 23 24 27 24 32 32 30 27 29 29 28 25 19 21 20 17 14 20 20 14 12 13 13 12 10 9 9 9 9 8 7 7 7 6
7 6 7 7 6 3 3 11 17 22 28 33 31 31 34 30 30 30 30 29 27 20 22 20 16 18 22 18 15 15 14 12 13 12 11 11 9 8 8 5 2 2 1
8 7 7 6 6 4 4 8 13 18 25 33 33 33 33 25 27 28 26 24 23 21 19 20 18 20 22 20 17 17 15 14 14 12 10 9 8 8 6 4 2 1 1
10 10 9 5 3 5 3 4 10 16 21 26 29 29 33 24 23 28 25 24 15 14 15 17 17 22 23 21 19 20 15 15 13 12 10 8 8 7 6 5 1 1 2
12 13 10 7 2 2 3 6 8 12 13 16 20 25 32 30 30 36 38 32 18 11 13 16 18 22 23 21 20 20 17 16 14 12 11 9 8 9 9 7 5 4 5
13 13 12 10 7 4 5 7 10 10 12 14 20 24 26 30 36 41 37 31 25 24 9 16 22 22 24 22 21 23 20 19 15 11 9 11 11 10 7 9 8 6 5
11 12 12 13 9 7 7 9 10 12 14 14 21 18 25 32 35 37 37 34 28 34 39 25 26 21 26 26 23 24 25 20 14 10 13 15 11 9 7 7 7 7 6
11 11 13 15 15 11 12 11 12 13 12 19 20 22 24 26 29 32 36 35 25 28 23 24 35 26 23 23 28 29 27 24 20 18 15 13 11 10 10 8 7 6 7
15 14 14 15 16 15 17 14 12 12 11 17 19 24 27 29 30 35 43 35 31 29 24 42 35 35 29 28 30 31 30 26 18 15 12 13 11 10 8 8 7 8 8
17 19 21 19 16 14 17 16 11 7 10 13 19 22 28 31 37 42 38 29 36 22 18 27 32 30 33 31 26 29 27 23 20 17 13 13 13 12 10 9 8 8 9
Wind_Direction
202 199 201 202 202 207 209 210 205 205 206 210 211 216 222 229 226 225 240 276 260 281 295 227 312 360 342 292 339 336 322 332 335 340 83 87 80 96 84 64 69 50 35
203 199 199 203 205 207 211 212 215 214 212 211 212 214 220 225 222 231 241 251 252 273 271 214 213 215 281 326 338 15 275 321 344 22 200 137 120 82 72 83 76 82 65
203 199 197 199 205 209 213 217 223 223 222 212 216 228 232 237 243 244 239 236 244 263 268 235 195 239 129 317 36 27 71 304 332 124 231 248 150 163 56 67 82 80 71
207 203 200 200 204 210 213 217 225 228 228 223 219 224 222 231 239 239 229 230 240 242 250 220 216 161 151 124 75 51 69 83 339 309 291 237 231 260 183 113 43 56 59
207 205 202 200 200 205 210 218 224 225 228 229 222 232 231 237 236 228 223 218 234 232 229 214 207 195 134 142 110 55 53 24 51 12 265 282 272 261 265 212 189 249 34
206 204 205 201 200 202 204 211 225 224 228 234 234 232 229 224 225 235 240 233 229 212 233 220 219 204 192 141 93 34 21 12 11 61 93 174 231 287 284 274 264 245 331
199 201 200 203 202 201 202 211 222 223 221 225 231 232 233 234 231 233 241 236 231 221 227 218 219 205 197 177 140 35 3 10 5 107 87 120 153 189 255 288 276 259 296
188 199 203 205 206 208 207 208 218 217 215 218 224 229 228 229 226 227 232 228 229 208 226 215 207 205 199 183 171 73 59 14 24 67 146 111 124 126 141 188 217 232 217
176 191 202 207 207 207 210 208 210 212 213 213 218 226 223 220 222 223 228 225 222 213 221 215 208 205 192 192 173 196 8 31 47 38 117 96 79 77 71 34 336 258 285
166 186 202 212 212 212 209 211 213 216 219 219 222 226 225 224 228 230 230 227 234 226 228 226 215 205 202 193 180 261 25 68 99 110 140 116 105 73 75 68 62 67 124
174 202 206 213 210 212 209 209 213 212 210 216 221 224 226 222 220 223 229 235 237 236 233 233 221 213 211 204 202 195 144 153 142 133 121 106 105 94 71 68 73 74 86
204 198 196 193 196 201 199 205 206 208 211 214 220 223 223 225 220 218 226 233 237 232 232 230 221 217 216 212 215 197 134 143 141 132 127 120 104 91 86 70 91 93 107
127 145 175 187 188 189 194 197 207 215 214 213 221 224 226 228 222 220 221 228 234 234 233 219 222 221 219 216 215 180 148 162 157 148 140 126 112 105 97 101 81 70 84
85 98 151 188 196 194 203 206 206 212 220 218 221 226 229 230 228 223 220 220 231 232 231 222 221 214 223 212 200 183 162 165 163 154 148 133 122 114 100 91 80 92 81
59 59 63 102 209 205 211 201 208 206 214 220 230 229 235 231 230 226 216 219 222 232 224 221 213 209 213 194 179 192 168 169 169 161 143 136 129 117 114 91 103 84 91
53 45 38 24 334 214 214 204 200 205 207 208 224 241 237 235 230 223 219 217 214 221 214 211 213 222 201 191 204 220 187 182 180 155 161 143 134 119 108 97 87 91 91
9 11 18 21 17 234 223 216 212 209 207 198 197 231 234 233 221 221 222 215 209 213 212 205 211 202 188 195 212 206 188 182 170 173 166 146 157 143 126 114 108 89 69
9 5 3 360 351 351 204 216 223 221 217 201 220 229 230 227 225 225 216 206 205 212 203 200 205 186 196 200 210 197 188 178 181 181 168 173 162 158 143 130 115 88 49
11 355 348 340 324 324 219 190 209 218 213 221 229 227 222 217 222 210 202 201 199 205 195 199 199 190 194 197 201 192 185 188 188 183 178 177 172 167 157 142 118 56 359
3 355 344 318 285 293 292 244 213 216 220 218 224 225 229 212 208 203 187 193 190 195 196 202 198 197 196 199 197 192 179 188 185 193 197 196 188 186 189 185 181 113 307
350 358 357 358 332 272 275 256 245 240 225 225 220 215 215 210 202 193 195 185 167 196 204 210 199 202 204 201 198 197 186 190 191 200 208 212 213 212 209 208 210 247 271
335 334 342 343 333 314 303 272 263 260 248 231 222 212 206 210 209 210 205 186 179 217 228 214 213 205 206 206 203 199 189 194 189 203 219 222 227 212 217 210 219 252 273
316 319 317 323 329 321 308 292 280 269 254 237 237 236 221 218 218 212 193 191 193 202 221 266 215 205 206 208 204 199 201 199 187 206 213 217 206 207 206 216 237 257 271
312 308 308 309 306 321 319 312 300 286 255 249 249 241 236 230 221 210 198 193 210 204 178 195 215 207 201 201 200 199 199 200 200 208 220 211 206 211 215 239 246 255 257
310 310 306 300 299 310 317 317 307 288 257 250 245 240 233 227 217 204 197 209 206 188 191 198 197 200 202 201 207 202 198 201 198 207 206 208 217 225 230 237 245 257 265
309 309 312 298 295 301 304 314 320 301 259 245 245 235 225 217 214 208 207 206 193 206 210 208 211 208 208 213 211 202 199 197 199 196 206 214 219 226 230 241 247 263 272